Effective Sunday, March 17, 2024, the National Weather Service National Data Buoy Center will discontinue its Dial-A-Buoy Interactive Voice Response system. For more information, see Service Change Notice 24-06 (PDF).

Station ROBN4 - 8530973 - Robbins Reef, NJ Image indicating link to RSS feed of recent meteorological observations for station ROBN4


Conditions at ROBN4 as of
(10:00 pm EST on 02/21/2024)
0300 GMT on 02/22/2024:
     

Click on the graph icon in the table below to see a time series plot of the last five days of that observation.

5-day plot - Wind Direction Wind Direction (WDIR): SE ( 140 deg true )
5-day plot - Wind Speed Wind Speed (WSPD): 9.9 kts
5-day plot - Wind Gust Wind Gust (GST): 12.0 kts
5-day plot - Atmospheric Pressure Atmospheric Pressure (PRES):30.29 in
5-day plot - Pressure Tendency Pressure Tendency (PTDY):-0.04 in ( Falling )
5-day plot - Air Temperature Air Temperature (ATMP): 36.3 °F
5-day plot - Wind Chill Wind Chill (CHILL): 28.4 °F
5-day plot - Wind Speed at 10 Meters Wind Speed at 10 meters (WSPD10M): 9.7 kts
5-day plot - Wind Speed at 20 Meters Wind Speed at 20 meters (WSPD20M): 9.7 kts
5-day plot -  Wind Speed, Wind Gust and Atmospheric Pressure Combined plot of Wind Speed, Gust, and Air Pressure
NOS Water Level Observation Network Water Level
Previous observations
TIME
(EST)
5-day plot - Wind Direction
WDIR
 
5-day plot - Wind Speed
WSPD
kts
5-day plot - Wind Gust
GST
kts
5-day plot - Wave Height
WVHT
ft
5-day plot - Dominant Wave Period
DPD
sec
5-day plot - Average Wave Period
APD
sec
5-day plot - Mean Wave Direction
MWD
 
5-day plot - Atmospheric Pressure
PRES
in
5-day plot - Pressure Tendency
PTDY
in
5-day plot - Air Temperature
ATMP
°F
5-day plot - Water Temperature
WTMP
°F
5-day plot - Dew Point
DEWP
°F
5-day plot - Salinity
SAL
psu
5-day plot - Visibility
VIS
nmi
5-day plot - Tide (above MLLW)
TIDE
ft
2024-02-21 09:54 pmSSE 11.1 12.0----30.30- 36.3-----
2024-02-21 09:48 pm SE 8.9 12.0----30.31- 36.5-----
2024-02-21 09:42 pm SE 8.9 11.1----30.31- 36.5-----
2024-02-21 09:36 pm SE 8.9 13.0----30.31- 36.5-----
2024-02-21 09:30 pm SE 11.1 12.0----30.31- 36.3-----
2024-02-21 09:24 pmSSE 7.0 9.9----30.32- 36.5-----
2024-02-21 09:18 pmSSE 8.0 9.9----30.32- 36.5-----
2024-02-21 09:12 pm SE 9.9 12.0----30.32- 36.5-----
2024-02-21 09:06 pmESE 11.1 12.0----30.32- 36.5-----
2024-02-21 09:00 pm SE 8.9 13.0----30.32-0.02 36.5-----
2024-02-21 08:54 pm SE 11.1 14.0----30.32- 36.5-----
2024-02-21 08:48 pm SE 9.9 13.0----30.32- 36.5-----
2024-02-21 08:42 pmESE 12.0 14.0----30.31- 36.5-----
2024-02-21 08:36 pm SE 8.9 11.1----30.31- 36.5-----
2024-02-21 08:30 pmESE 8.9 13.0----30.32- 36.5-----
2024-02-21 08:24 pm SE 8.9 13.0----30.32- 36.5-----
2024-02-21 08:18 pm SE 9.9 15.0----30.32- 36.5-----
2024-02-21 08:12 pm SE 7.0 12.0----30.32- 36.5-----
2024-02-21 08:06 pmESE 9.9 11.1----30.32- 36.5-----
2024-02-21 08:00 pmESE 8.0 11.1----30.33-0.02 36.5-----
2024-02-21 07:54 pm SE 9.9 14.0----30.33- 36.5-----
2024-02-21 07:48 pmESE 9.9 12.0----30.33- 36.5-----
2024-02-21 07:42 pm SE 8.9 11.1----30.33- 36.5-----
2024-02-21 07:36 pmESE 7.0 12.0----30.33- 36.5-----
2024-02-21 07:30 pm SE 9.9 12.0----30.33- 36.3-----
2024-02-21 07:24 pmSSE 11.1 14.0----30.33- 36.5-----
2024-02-21 07:18 pm SE 9.9 15.9----30.32- 36.5-----
2024-02-21 07:12 pmESE 14.0 15.9----30.32- 36.5-----
2024-02-21 07:06 pmESE 12.0 15.0----30.33- 36.5-----
2024-02-21 07:00 pmESE 11.1 14.0----30.33-0.02 36.5-----
2024-02-21 06:54 pm SE 8.9 14.0----30.34- 36.5-----
2024-02-21 06:48 pm SE 15.0 17.1----30.34- 36.5-----
2024-02-21 06:42 pmESE 12.0 15.0----30.33- 36.7-----
2024-02-21 06:36 pmESE 11.1 14.0----30.34- 36.7-----
2024-02-21 06:30 pmESE 14.0 15.9----30.34- 36.7-----
2024-02-21 06:24 pmESE 11.1 15.9----30.34- 36.7-----
2024-02-21 06:00 pm SE 12.0 15.9----30.34-0.03 36.7-----
2024-02-21 05:54 pm SE 14.0 15.0----30.34- 36.7-----
2024-02-21 05:48 pmESE 13.0 15.9----30.34- 36.9-----
2024-02-21 05:42 pmESE 13.0 17.1----30.34- 36.9-----
2024-02-21 05:36 pm SE 13.0 15.9----30.34- 36.9-----
2024-02-21 05:30 pm SE 13.0 15.9----30.34- 37.0-----
2024-02-21 05:24 pmESE 13.0 15.0----30.34- 37.0-----
2024-02-21 05:18 pmESE 13.0 15.9----30.35- 37.0-----
2024-02-21 05:12 pm SE 13.0 15.0----30.35- 37.2-----
2024-02-21 05:06 pmESE 12.0 14.0----30.35- 37.2-----
2024-02-21 05:00 pm SE 9.9 12.0----30.35-0.03 37.4-----
2024-02-21 04:54 pmESE 8.9 13.0----30.35- 37.2-----
2024-02-21 04:48 pm SE 12.0 13.0----30.35- 37.2-----
2024-02-21 04:42 pm SE 12.0 15.9----30.35- 37.2-----
2024-02-21 04:36 pm SE 12.0 14.0----30.35- 37.2-----
2024-02-21 04:30 pmESE 9.9 12.0----30.35- 37.2-----
2024-02-21 04:24 pmESE 11.1 12.0----30.35- 37.2-----
2024-02-21 04:18 pmESE 11.1 12.0----30.35- 37.2-----
2024-02-21 04:12 pm SE 11.1 12.0----30.35- 37.2-----
2024-02-21 04:06 pm E 6.0 9.9----30.36- 37.2-----
2024-02-21 04:00 pmESE 8.9 11.1----30.35-0.06 37.2-----
2024-02-21 03:54 pm SE 9.9 14.0----30.35- 37.2-----
2024-02-21 03:48 pm SE 9.9 11.1----30.35- 37.4-----
2024-02-21 03:42 pm SE 9.9 11.1----30.35- 37.4-----
2024-02-21 03:36 pmESE 8.9 12.0----30.36- 37.2-----
2024-02-21 03:30 pm SE 9.9 12.0----30.35- 37.2-----
2024-02-21 03:24 pmSSE 9.9 12.0----30.35- 37.2-----
2024-02-21 03:18 pmSSE 11.1 12.0----30.36- 37.0-----
2024-02-21 03:12 pmSSE 9.9 11.1----30.36- 37.2-----
2024-02-21 03:06 pm SE 9.9 11.1----30.36- 37.2-----
2024-02-21 03:00 pmSSE 8.0 11.1----30.37-0.08 37.2-----
2024-02-21 02:54 pm SE 8.0 9.9----30.37- 37.4-----
2024-02-21 02:48 pm SE 5.1 8.0----30.37- 37.6-----
2024-02-21 02:42 pm SE 4.1 8.0----30.37- 37.6-----
2024-02-21 02:36 pmSSE 8.0 11.1----30.37- 37.2-----
2024-02-21 02:30 pm SE 6.0 8.0----30.37- 37.6-----
2024-02-21 02:24 pmESE 6.0 8.0----30.37- 37.2-----
2024-02-21 02:18 pmSSE 6.0 8.0----30.37- 37.4-----
2024-02-21 02:12 pm SE 7.0 8.0----30.37- 37.4-----
2024-02-21 02:06 pm SE 7.0 8.0----30.38- 37.4-----
2024-02-21 02:00 pm E 4.1 6.0----30.38-0.09 37.2-----
2024-02-21 01:54 pmESE 6.0 8.0----30.38- 37.4-----
2024-02-21 01:48 pm SE 2.9 6.0----30.38- 37.6-----
2024-02-21 01:42 pm E 5.1 8.0----30.39- 37.2-----
2024-02-21 01:36 pm SE 6.0 8.0----30.39- 37.2-----
2024-02-21 01:30 pm SE 8.0 11.1----30.40- 37.2-----
2024-02-21 01:24 pmESE 7.0 8.0----30.40- 37.2-----
2024-02-21 01:18 pm SE 8.0 8.9----30.40- 37.2-----
2024-02-21 01:12 pmESE 8.0 8.9----30.40- 37.0-----
2024-02-21 01:06 pmSSE 7.0 8.9----30.41- 37.0-----
2024-02-21 01:00 pm E 5.1 8.0----30.41-0.08 37.0-----
2024-02-21 12:54 pm E 8.0 9.9----30.42- 37.0-----
2024-02-21 12:48 pmESE 8.0 11.1----30.42- 37.0-----
2024-02-21 12:42 pm E 8.9 13.0----30.42- 37.0-----
2024-02-21 12:36 pm E 8.9 9.9----30.42- 36.9-----
2024-02-21 12:30 pm E 8.9 11.1----30.43- 36.9-----
2024-02-21 12:24 pm E 7.0 9.9----30.43- 36.9-----
2024-02-21 12:18 pm E 7.0 9.9----30.44- 36.9-----
2024-02-21 12:12 pm SE 9.9 13.0----30.44- 36.9-----
2024-02-21 12:06 pmESE 12.0 14.0----30.44- 36.9-----
2024-02-21 12:00 pm E 8.9 11.1----30.45-0.05 36.7-----
2024-02-21 11:54 am E 9.9 14.0----30.45- 36.9-----
2024-02-21 11:48 amESE 11.1 15.0----30.45- 36.7-----
2024-02-21 11:42 amESE 13.0 15.9----30.45- 36.7-----
2024-02-21 11:36 am E 12.0 13.0----30.46- 36.7-----
2024-02-21 11:30 amESE 8.0 12.0----30.46- 36.7-----
2024-02-21 11:24 amESE 8.9 18.1----30.47- 36.9-----
2024-02-21 11:18 amESE 9.9 12.0----30.47- 36.9-----
2024-02-21 11:12 am SE 8.9 13.0----30.47- 36.7-----
2024-02-21 11:06 amESE 11.1 14.0----30.47- 36.7-----
2024-02-21 11:00 amESE 8.9 12.0----30.47-0.02 36.9-----
2024-02-21 10:54 amESE 11.1 13.0----30.48- 36.7-----
2024-02-21 10:48 am E 11.1 12.0----30.48- 36.5-----
2024-02-21 10:42 amESE 11.1 13.0----30.49- 36.7-----
2024-02-21 10:36 amESE 12.0 15.0----30.49- 36.5-----
2024-02-21 10:30 amESE 13.0 15.0----30.49- 36.5-----
2024-02-21 10:24 amESE 12.0 15.0----30.49- 36.5-----
2024-02-21 10:18 amESE 12.0 13.0----30.49- 36.5-----
2024-02-21 10:12 am SE 9.9 15.0----30.49- 36.7-----
2024-02-21 10:06 am E 6.0 8.0----30.49- 36.1-----
2024-02-21 10:00 am E 5.1 7.0----30.49+0.01------
2024-02-21 09:54 am E 6.0 8.0----30.49-------
2024-02-21 09:48 am E 6.0 8.0----30.50- 35.6-----
2024-02-21 09:42 am E 7.0 8.0----30.50- 35.6-----
2024-02-21 09:36 amENE 6.0 7.0----30.50- 35.4-----
2024-02-21 09:30 am E 6.0 7.0----30.50- 35.4-----
2024-02-21 09:24 am E 7.0 8.0----30.50- 35.1-----
2024-02-21 09:18 am E 5.1 7.0----30.50- 34.9-----
2024-02-21 09:12 am E 6.0 8.0----30.50- 34.7-----
2024-02-21 09:06 am E 7.0 8.0----30.50- 34.7-----
2024-02-21 09:00 am E 7.0 8.9----30.50+0.01 34.5-----
2024-02-21 08:54 am E 7.0 9.9----30.50- 34.5-----
2024-02-21 08:48 am E 8.0 9.9----30.50- 34.3-----
2024-02-21 08:42 am E 8.0 11.1----30.50- 34.2-----
2024-02-21 08:36 am E 8.0 9.9----30.49- 34.3-----
2024-02-21 08:30 am E 8.9 8.9----30.49- 34.0-----
2024-02-21 08:24 amNNE 4.1 5.1----30.50- 32.0-----
2024-02-21 08:18 am N 5.1 7.0----30.49- 31.6-----
2024-02-21 08:12 amNNE 4.1 5.1----30.49- 31.3-----
2024-02-21 08:06 am N 4.1 5.1----30.49- 31.1-----
2024-02-21 08:00 am NE 4.1 6.0----30.49+0.01 32.4-----
2024-02-21 07:54 am N 2.9 4.1----30.49- 31.5-----
2024-02-21 07:48 am NE 4.1 6.0----30.49- 32.7-----
2024-02-21 07:42 am NE 5.1 8.0----30.49- 33.4-----
2024-02-21 07:36 amENE 6.0 8.0----30.49- 33.6-----
2024-02-21 07:30 amENE 7.0 8.0----30.49- 33.3-----
2024-02-21 07:24 am E 7.0 8.9----30.49- 33.3-----
2024-02-21 07:18 amENE 7.0 9.9----30.48- 33.1-----
2024-02-21 07:12 am E 8.9 9.9----30.48- 33.1-----
2024-02-21 07:06 am E 7.0 8.9----30.48- 32.9-----
2024-02-21 07:00 am E 8.0 8.9----30.48+0.01 32.9-----
2024-02-21 06:54 amENE 7.0 8.9----30.48- 32.9-----
2024-02-21 06:48 amENE 6.0 8.0----30.48- 33.1-----
2024-02-21 06:42 amENE 5.1 8.0----30.48- 32.9-----
2024-02-21 06:36 amNNE 2.9 5.1----30.48- 31.3-----
2024-02-21 06:30 am NE 4.1 6.0----30.48- 31.1-----
2024-02-21 06:24 am N 4.1 8.9----30.48- 30.7-----
2024-02-21 06:18 am N 5.1 7.0----30.48- 30.9-----
2024-02-21 06:12 am N 5.1 7.0----30.49- 30.7-----
2024-02-21 06:06 am N 6.0 8.0----30.49- 30.4-----
2024-02-21 06:00 amNNW 5.1 6.0----30.49+0.01 29.8-----
2024-02-21 05:54 am N 5.1 6.0----30.49- 29.5-----
2024-02-21 05:48 am N 6.0 6.0----30.48- 29.7-----
2024-02-21 05:42 am N 6.0 6.0----30.48- 30.4-----
2024-02-21 05:36 am N 5.1 6.0----30.48- 30.2-----
2024-02-21 05:30 amNNW 5.1 6.0----30.48- 29.5-----
2024-02-21 05:24 am NW 5.1 6.0----30.48- 29.5-----
2024-02-21 05:18 amNNW 1.9 6.0----30.48- 30.9-----
2024-02-21 05:12 amENE 6.0 8.0----30.48- 33.3-----
2024-02-21 05:06 amENE 6.0 7.0----30.48- 33.3-----
2024-02-21 05:00 amENE 6.0 7.0----30.48+0.00 33.3-----
2024-02-21 04:54 amENE 6.0 7.0----30.48- 33.3-----
2024-02-21 04:48 amENE 6.0 8.0----30.48- 33.3-----
2024-02-21 04:42 am E 7.0 8.0----30.48- 33.1-----
2024-02-21 04:36 am E 7.0 8.0----30.47- 33.1-----
2024-02-21 04:30 amENE 7.0 8.0----30.47- 33.1-----
2024-02-21 04:24 am E 7.0 7.0----30.47- 33.1-----
2024-02-21 04:18 am E 6.0 7.0----30.47- 33.1-----
2024-02-21 04:12 am E 7.0 8.0----30.47- 33.1-----
2024-02-21 04:06 am E 6.0 8.0----30.47- 33.1-----
2024-02-21 04:00 am E 7.0 8.0----30.47-0.02 33.1-----
2024-02-21 03:54 am E 7.0 8.0----30.47- 32.9-----
2024-02-21 03:48 am E 7.0 8.0----30.47- 33.1-----
2024-02-21 03:42 am E 7.0 8.0----30.47- 33.1-----
2024-02-21 03:36 am E 7.0 8.9----30.47- 33.1-----
2024-02-21 03:30 am E 7.0 8.0----30.47- 33.1-----
2024-02-21 03:24 am E 6.0 7.0----30.47- 33.1-----
2024-02-21 03:18 amENE 6.0 7.0----30.47- 33.1-----
2024-02-21 03:12 am E 6.0 8.0----30.47- 33.1-----
2024-02-21 03:06 am E 6.0 7.0----30.47- 33.1-----
2024-02-21 03:00 am E 6.0 7.0----30.47-0.03 33.1-----
2024-02-21 02:54 am E 6.0 7.0----30.47- 33.1-----
2024-02-21 02:48 amENE 5.1 6.0----30.47- 33.1-----
2024-02-21 02:42 am E 6.0 7.0----30.47- 33.1-----
2024-02-21 02:36 am E 6.0 7.0----30.47- 33.1-----
2024-02-21 02:30 am E 6.0 7.0----30.48- 33.1-----
2024-02-21 02:24 amENE 6.0 7.0----30.48- 33.3-----
2024-02-21 02:18 am E 6.0 7.0----30.48- 33.3-----
2024-02-21 02:12 am E 6.0 7.0----30.48- 33.3-----
2024-02-21 02:06 amENE 6.0 7.0----30.48- 33.3-----
2024-02-21 02:00 am E 6.0 7.0----30.48-0.02------
2024-02-21 01:54 amENE 6.0 7.0----30.48-------
2024-02-21 01:48 amENE 6.0 7.0----30.48- 33.4-----
2024-02-21 01:42 amENE 6.0 8.0----30.48- 33.4-----
2024-02-21 01:36 am E 6.0 7.0----30.48- 33.6-----
2024-02-21 01:30 am E 6.0 8.0----30.49- 33.4-----
2024-02-21 01:24 am E 7.0 8.0----30.49- 33.4-----
2024-02-21 01:18 am E 6.0 7.0----30.49- 33.4-----
2024-02-21 01:12 am E 6.0 8.0----30.49- 33.4-----
2024-02-21 01:06 am E 6.0 8.0----30.49- 33.4-----
2024-02-21 01:00 am E 7.0 8.0----30.49-0.01 33.4-----
2024-02-21 12:54 am E 7.0 8.0----30.49- 33.4-----
2024-02-21 12:48 am E 7.0 8.0----30.49- 33.3-----
2024-02-21 12:42 am E 7.0 8.9----30.49- 33.3-----
2024-02-21 12:36 am E 6.0 8.9----30.49- 33.3-----
2024-02-21 12:30 am E 8.0 8.0----30.49- 33.4-----
2024-02-21 12:24 am E 7.0 7.0----30.49- 33.4-----
2024-02-21 12:18 am E 6.0 7.0----30.50- 33.3-----
2024-02-21 12:12 am E 6.0 7.0----30.50- 33.3-----
2024-02-21 12:06 am E 6.0 6.0----30.50- 33.3-----
2024-02-21 12:00 am E 5.1 7.0----30.50+0.00 33.3-----
2024-02-20 11:54 pm E 5.1 6.0----30.50- 33.3-----
2024-02-20 11:48 pm E 5.1 6.0----30.50- 33.4-----
2024-02-20 11:42 pm E 5.1 6.0----30.50- 33.3-----
2024-02-20 11:36 pm E 5.1 6.0----30.50- 33.3-----
2024-02-20 11:30 pm E 4.1 5.1----30.50- 33.4-----
2024-02-20 11:24 pm E 5.1 6.0----30.50- 33.3-----
2024-02-20 11:18 pmESE 5.1 7.0----30.50- 33.4-----
2024-02-20 11:12 pm E 6.0 7.0----30.50- 33.4-----
2024-02-20 11:06 pm E 6.0 7.0----30.50- 33.3-----
2024-02-20 11:00 pmESE 6.0 8.0----30.50+0.02 33.3-----
2024-02-20 10:54 pm E 6.0 8.0----30.50- 33.4-----
2024-02-20 10:48 pmESE 7.0 8.0----30.50- 33.3-----
2024-02-20 10:42 pm E 7.0 8.0----30.50- 33.4-----
2024-02-20 10:36 pm E 7.0 8.0----30.50- 33.3-----
2024-02-20 10:30 pm E 7.0 8.0----30.50- 33.4-----
2024-02-20 10:24 pm E 7.0 7.0----30.50- 33.4-----
2024-02-20 10:18 pmESE 6.0 8.0----30.50- 33.6-----
2024-02-20 10:12 pmESE 6.0 7.0----30.50- 33.4-----
2024-02-20 10:06 pm E 7.0 8.9----30.50- 33.4-----
2024-02-20 10:00 pm E 7.0 8.9----30.50+0.02 33.4-----
2024-02-20 09:54 pmESE 6.0 7.0----30.50- 33.4-----